SL-12 DEB, 19753

Orbit data source: Space-Track

SL-12 DEB, 19753 is space debris in MEO originally from a launch on Tue, 10 Jan 1989 UTC launched from the Tyuratam Missile And Space Complex (TTMTR). Debris objects in space refer to the collection of defunct objects orbiting the Earth. Examples of debris include non-operational satellites, rocket bodies, and fragments generated from explosions, collisions, or faulty payload assembly.

Loading next visibility...
Identifier
19753, 1989-001E
Orbit
MEO
Country
Flag of CISCIS
Related business
Manufacturer
NPO PM
Mission
Spacecraft
Bus & Motor
ETALON ADAPTER, Unknown motor
Mass
Unknown
Launch date (UTC)
1989-01-10 (38 years ago)
Launch vehicle
Unknown
Launch site
Tyuratam Missile And Space Complex (TTMTR)
Object type
Payload
Rocket body
Debris
Shape & HBR
Unknown shape, 1.1 m
Radar Cross Section
Medium (>0.1 m² and <1 m²)

Expand to show TLE details & history
Last TLE update: 3 days ago

TLE from 3 days ago
0 SL-12 DEB
1 19753U 89001E   26251.40947286  .00000033  00000-0  00000-0 0  9995
2 19753  64.9989  69.3232 0024673 212.7526 163.3448  2.13160673293466
Epoch: 2026-09-08T09:49Z
TLE epoch observation values (Epoch: 2026-09-08T09:49:38.455Z)
Latitude
14.60379°
Longitude
-58.5944°
Altitude
19,185.389 km
Speed
3.944 km/s
True Right ascension
05h 05m 10s
True Declination
14° 34' 50"
Sunlit
Object was in daylight at epoch
Visualization orbit readout
Latitude
Unknown
Longitude
Unknown
Altitude
Unknown
Speed
Unknown
Apparent Right ascension
Unknown
Apparent Declination
Unknown
Sunlit
N/A
Visualization observer readout
Local Sidereal Time
03:51:33
Azimuth
Unknown
Elevation
Unknown
Doppler factor
Unknown
Orbital elements
Apogee altitude
19,187.745 km
Perigee altitude
19,061.898 km
Semi-major axis
25,502.958 km
Eccentricity
0.00247
Inclination
64.9989°
RAAN
69.3232°
Arg. of periapsis
212.7526°
True anomaly
163.4256°
Mean anomaly
163.3448°
Eccentric anomaly
163.38522°
Mean motion
0.53291 °/min
Orbital period
675.53 mins
BSTAR
0
Loading maneuver chart data...
Computing Atmospheric mass density...
Loading historical data...
Loading historical data...
Loading historical data...
Loading historical data...
Loading historical data...
Loading historical data...
Loading historical data...

Documentation

Showing up to 5 results
|